Location: Bothwell
(42.3833°S, 147.0000°E)
Time: 22:11:44
(UTC+11:00)

CUTE-I - Pass Details

Date: 29 September 2022
Orbit: 810 x 823 km, 98.7° (Epoch: 30 November)

Event Time Altitude Azimuth Distance (km) Brightness Sun altitude
Rises 05:03:49 0° 31° (NNE) 3,327 ? -9.3°
Reaches altitude 10° 05:06:12 10° 37° (NE) 2,405 ? -8.8°
Maximum altitude 05:11:19 49° 110° (ESE) 1,052 ? -7.9°
Drops below altitude 10° 05:16:30 10° 183° (S) 2,441 ? -6.9°
Sets 05:18:56 0° 188° (S) 3,383 ? -6.5°
